| time (UTC) | temp F | wind direction | speed MPH | gust MPH | rain 1hr in | rain 24hr in | rain mn in | humidity % | barometer mb |
| 20260906183017 | 80 | 90 | 1.0 | 2.0 | 0.00 | 0.00 | 0.00 | 63 | 1017.5 |
| 20260906182517 | 79 | 113 | 1.0 | 3.0 | 0.00 | 0.00 | 0.00 | 65 | 1017.6 |
| 20260906182017 | 79 | 135 | 1.0 | 2.0 | 0.00 | 0.00 | 0.00 | 64 | 1017.7 |
| 20260906181537 | 79 | 90 | 1.0 | 3.0 | 0.00 | 0.00 | 0.00 | 64 | 1017.7 |
| 20260906181017 | 79 | 158 | 1.0 | 3.0 | 0.00 | 0.00 | 0.00 | 65 | 1017.7 |
| 20260906180537 | 79 | 90 | 1.0 | 2.0 | 0.00 | 0.00 | 0.00 | 65 | 1017.7 |
| 20260906180017 | 79 | 90 | 1.0 | 1.0 | 0.00 | 0.00 | 0.00 | 65 | 1017.6 |
| 20260906175517 | 79 | 0.0 | 2.0 | 0.00 | 0.00 | 0.00 | 66 | 1017.6 | |
| 20260906175017 | 79 | 113 | 1.0 | 3.0 | 0.00 | 0.00 | 0.00 | 64 | 1017.6 |
| 20260906174517 | 80 | 113 | 1.0 | 3.0 | 0.00 | 0.00 | 0.00 | 64 | 1017.7 |
| 20260906174017 | 80 | 113 | 1.0 | 2.0 | 0.00 | 0.00 | 0.00 | 65 | 1017.6 |
| 20260906173517 | 80 | 90 | 1.0 | 3.0 | 0.00 | 0.00 | 0.00 | 64 | 1017.7 |
| 20260906173036 | 80 | 0.0 | 2.0 | 0.00 | 0.00 | 0.00 | 64 | 1017.7 | |
| 20260906172517 | 79 | 90 | 1.0 | 2.0 | 0.00 | 0.00 | 0.00 | 64 | 1017.8 |
| 20260906172017 | 79 | 0.0 | 2.0 | 0.00 | 0.00 | 0.00 | 65 | 1017.9 | |
| 20260906171537 | 79 | 90 | 1.0 | 3.0 | 0.00 | 0.00 | 0.00 | 68 | 1017.9 |
| 20260906171017 | 79 | 0.0 | 2.0 | 0.00 | 0.00 | 0.00 | 67 | 1017.9 | |
| 20260906170517 | 79 | 158 | 1.0 | 2.0 | 0.00 | 0.00 | 0.00 | 68 | 1017.9 |
| 20260906170016 | 78 | 0.0 | 2.0 | 0.00 | 0.00 | 0.00 | 68 | 1018.1 | |
| 20260906165516 | 78 | 203 | 1.0 | 3.0 | 0.00 | 0.00 | 0.00 | 68 | 1018.2 |
| 20260906165017 | 78 | 113 | 1.0 | 2.0 | 0.00 | 0.00 | 0.00 | 66 | 1018.0 |
| 20260906164537 | 78 | 113 | 1.0 | 2.0 | 0.00 | 0.00 | 0.00 | 67 | 1018.1 |
| 20260906164016 | 78 | 113 | 1.0 | 3.0 | 0.00 | 0.00 | 0.00 | 70 | 1018.0 |
| 20260906163516 | 78 | 0.0 | 2.0 | 0.00 | 0.00 | 0.00 | 69 | 1018.2 | |
| 20260906163017 | 78 | 90 | 1.0 | 2.0 | 0.00 | 0.00 | 0.00 | 69 | 1018.3 |
| 20260906162516 | 77 | 90 | 1.0 | 2.0 | 0.00 | 0.00 | 0.00 | 69 | 1018.3 |
| 20260906162016 | 77 | 158 | 1.0 | 2.0 | 0.00 | 0.00 | 0.00 | 70 | 1018.2 |
| 20260906161536 | 77 | 113 | 1.0 | 3.0 | 0.00 | 0.00 | 0.00 | 70 | 1018.2 |
| 20260906161017 | 77 | 135 | 1.0 | 2.0 | 0.00 | 0.00 | 0.00 | 70 | 1018.2 |
| 20260906160537 | 77 | 113 | 1.0 | 3.0 | 0.00 | 0.00 | 0.00 | 71 | 1018.3 |
| 20260906160016 | 77 | 90 | 1.0 | 2.0 | 0.00 | 0.00 | 0.00 | 71 | 1018.5 |
| 20260906155517 | 77 | 0.0 | 2.0 | 0.00 | 0.00 | 0.00 | 71 | 1018.5 | |
| 20260906155016 | 77 | 0.0 | 2.0 | 0.00 | 0.00 | 0.00 | 71 | 1018.5 | |
| 20260906154516 | 76 | 0.0 | 2.0 | 0.00 | 0.00 | 0.00 | 72 | 1018.4 | |
| 20260906154016 | 76 | 0.0 | 1.0 | 0.00 | 0.00 | 0.00 | 71 | 1018.4 | |
| 20260906153516 | 76 | 0.0 | 1.0 | 0.00 | 0.00 | 0.00 | 72 | 1018.4 | |
| 20260906153017 | 76 | 0.0 | 2.0 | 0.00 | 0.00 | 0.00 | 72 | 1018.6 | |
| 20260906152516 | 76 | 113 | 1.0 | 2.0 | 0.00 | 0.00 | 0.00 | 73 | 1018.6 |
| 20260906152016 | 75 | 90 | 1.0 | 2.0 | 0.00 | 0.00 | 0.00 | 74 | 1018.7 |
| 20260906151516 | 75 | 0.0 | 2.0 | 0.00 | 0.00 | 0.00 | 76 | 1018.8 | |
| 20260906151016 | 75 | 0.0 | 2.0 | 0.00 | 0.00 | 0.00 | 75 | 1018.6 | |
| 20260906150516 | 75 | 0.0 | 2.0 | 0.00 | 0.00 | 0.00 | 75 | 1018.6 | |
| 20260906150056 | 74 | 90 | 1.0 | 2.0 | 0.00 | 0.00 | 0.00 | 75 | 1018.5 |
| 20260906145516 | 74 | 0.0 | 1.0 | 0.00 | 0.00 | 0.00 | 76 | 1018.5 | |
| 20260906145016 | 74 | 0.0 | 2.0 | 0.00 | 0.00 | 0.00 | 76 | 1018.3 | |
| 20260906144516 | 74 | 113 | 1.0 | 2.0 | 0.00 | 0.00 | 0.00 | 77 | 1018.3 |
| 20260906144017 | 74 | 0.0 | 2.0 | 0.00 | 0.00 | 0.00 | 78 | 1018.3 | |
| 20260906143516 | 73 | 0.0 | 2.0 | 0.00 | 0.00 | 0.00 | 79 | 1018.3 | |
| 20260906143016 | 73 | 0.0 | 2.0 | 0.00 | 0.00 | 0.00 | 79 | 1018.3 | |
| 20260906142516 | 73 | 0.0 | 2.0 | 0.00 | 0.00 | 0.00 | 80 | 1018.4 | |
| 20260906142016 | 72 | 0.0 | 1.0 | 0.00 | 0.00 | 0.00 | 80 | 1018.4 | |
| 20260906141516 | 72 | 0.0 | 1.0 | 0.00 | 0.00 | 0.00 | 81 | 1018.4 | |
| 20260906141016 | 72 | 0.0 | 1.0 | 0.00 | 0.00 | 0.00 | 81 | 1018.4 | |
| 20260906140516 | 71 | 0.0 | 1.0 | 0.00 | 0.00 | 0.00 | 82 | 1018.4 | |
| 20260906140117 | 71 | 0.0 | 2.0 | 0.00 | 0.00 | 0.00 | 83 | 1018.5 | |
| 20260906135536 | 71 | 0.0 | 2.0 | 0.00 | 0.00 | 0.00 | 83 | 1018.4 | |
| 20260906135016 | 70 | 0.0 | 2.0 | 0.00 | 0.00 | 0.00 | 84 | 1018.4 | |
| 20260906134516 | 70 | 0.0 | 2.0 | 0.00 | 0.00 | 0.00 | 84 | 1018.3 | |
| 20260906134016 | 70 | 0.0 | 2.0 | 0.00 | 0.00 | 0.00 | 85 | 1018.3 | |
| 20260906133537 | 70 | 0.0 | 2.0 | 0.00 | 0.00 | 0.00 | 86 | 1018.2 | |
| 20260906133017 | 69 | 0.0 | 2.0 | 0.00 | 0.00 | 0.00 | 86 | 1018.1 | |
| 20260906132516 | 69 | 0.0 | 2.0 | 0.00 | 0.00 | 0.00 | 86 | 1018.2 | |
| 20260906132016 | 69 | 0.0 | 2.0 | 0.00 | 0.00 | 0.00 | 87 | 1018.1 | |
| 20260906131536 | 69 | 0.0 | 2.0 | 0.00 | 0.00 | 0.00 | 87 | 1018.2 | |
| 20260906131016 | 68 | 0.0 | 1.0 | 0.00 | 0.00 | 0.00 | 87 | 1018.1 | |
| 20260906130516 | 68 | 0.0 | 0.0 | 0.00 | 0.00 | 0.00 | 88 | 1018.1 | |
| 20260906130036 | 68 | 0.0 | 0.0 | 0.00 | 0.00 | 0.00 | 88 | 1018.1 | |
| 20260906125516 | 68 | 0.0 | 2.0 | 0.00 | 0.00 | 0.00 | 88 | 1018.1 | |
| 20260906125015 | 67 | 0.0 | 1.0 | 0.00 | 0.00 | 0.00 | 88 | 1018.1 | |
| 20260906124516 | 67 | 0.0 | 0.0 | 0.00 | 0.00 | 0.00 | 87 | 1018.1 | |
| 20260906124016 | 67 | 0.0 | 0.0 | 0.00 | 0.00 | 0.00 | 87 | 1018.1 | |
| 20260906123516 | 66 | 0.0 | 0.0 | 0.00 | 0.00 | 0.00 | 87 | 1018.0 | |
| 20260906123016 | 66 | 0.0 | 0.0 | 0.00 | 0.00 | 0.00 | 86 | 1018.1 | |
| 20260906122516 | 66 | 0.0 | 0.0 | 0.00 | 0.00 | 0.00 | 87 | 1018.2 | |
| 20260906122015 | 66 | 0.0 | 0.0 | 0.00 | 0.00 | 0.00 | 87 | 1018.1 | |
| 20260906121516 | 66 | 0.0 | 0.0 | 0.00 | 0.00 | 0.00 | 86 | 1018.1 | |
| 20260906121015 | 66 | 0.0 | 0.0 | 0.00 | 0.00 | 0.00 | 86 | 1018.0 | |
| 20260906120516 | 66 | 0.0 | 0.0 | 0.00 | 0.00 | 0.00 | 86 | 1017.9 | |
| 20260906120035 | 66 | 0.0 | 0.0 | 0.00 | 0.00 | 0.00 | 85 | 1017.8 | |
| 20260906115516 | 66 | 0.0 | 0.0 | 0.00 | 0.00 | 0.00 | 85 | 1017.9 | |
| 20260906115016 | 66 | 0.0 | 0.0 | 0.00 | 0.00 | 0.00 | 85 | 1017.9 | |
| 20260906114515 | 66 | 0.0 | 0.0 | 0.00 | 0.00 | 0.00 | 85 | 1017.8 | |
| 20260906114016 | 66 | 0.0 | 0.0 | 0.00 | 0.00 | 0.00 | 85 | 1017.7 | |
| 20260906113516 | 66 | 0.0 | 0.0 | 0.00 | 0.00 | 0.00 | 85 | 1017.7 | |
| 20260906113035 | 67 | 0.0 | 0.0 | 0.00 | 0.00 | 0.00 | 85 | 1017.6 | |
| 20260906112516 | 67 | 0.0 | 0.0 | 0.00 | 0.00 | 0.00 | 85 | 1017.7 | |
| 20260906112015 | 67 | 0.0 | 0.0 | 0.00 | 0.00 | 0.00 | 85 | 1017.8 | |
| 20260906111515 | 67 | 0.0 | 0.0 | 0.00 | 0.00 | 0.00 | 85 | 1017.8 | |
| 20260906111015 | 67 | 0.0 | 0.0 | 0.00 | 0.00 | 0.00 | 85 | 1017.7 | |
| 20260906110515 | 67 | 0.0 | 0.0 | 0.00 | 0.00 | 0.00 | 85 | 1017.6 | |
| 20260906110016 | 67 | 0.0 | 0.0 | 0.00 | 0.00 | 0.00 | 85 | 1017.6 | |
| 20260906105515 | 67 | 0.0 | 0.0 | 0.00 | 0.00 | 0.00 | 85 | 1017.6 | |
| 20260906105037 | 67 | 0.0 | 0.0 | 0.00 | 0.00 | 0.00 | 84 | 1017.6 | |
| 20260906104517 | 67 | 0.0 | 0.0 | 0.00 | 0.00 | 0.00 | 84 | 1017.6 | |
| 20260906104017 | 67 | 0.0 | 0.0 | 0.00 | 0.00 | 0.00 | 84 | 1017.6 | |
| 20260906103517 | 68 | 0.0 | 0.0 | 0.00 | 0.00 | 0.00 | 84 | 1017.5 | |
| 20260906103017 | 68 | 0.0 | 0.0 | 0.00 | 0.00 | 0.00 | 84 | 1017.4 | |
| 20260906102517 | 68 | 0.0 | 0.0 | 0.00 | 0.00 | 0.00 | 84 | 1017.5 | |
| 20260906102017 | 68 | 0.0 | 0.0 | 0.00 | 0.00 | 0.00 | 84 | 1017.5 | |
| 20260906101517 | 68 | 0.0 | 0.0 | 0.00 | 0.00 | 0.00 | 83 | 1017.5 | |
| 20260906101017 | 68 | 0.0 | 0.0 | 0.00 | 0.00 | 0.00 | 83 | 1017.4 | |
| 20260906100518 | 68 | 0.0 | 0.0 | 0.00 | 0.00 | 0.00 | 83 | 1017.4 | |
| 20260906100018 | 68 | 0.0 | 0.0 | 0.00 | 0.00 | 0.00 | 84 | 1017.4 | |
| 20260906095517 | 69 | 0.0 | 0.0 | 0.00 | 0.00 | 0.00 | 83 | 1017.4 | |
| 20260906095017 | 69 | 0.0 | 0.0 | 0.00 | 0.00 | 0.00 | 83 | 1017.2 | |
| 20260906094538 | 69 | 0.0 | 0.0 | 0.00 | 0.00 | 0.00 | 83 | 1017.0 | |
| 20260906094017 | 69 | 0.0 | 0.0 | 0.00 | 0.00 | 0.00 | 83 | 1016.9 | |
| 20260906093517 | 69 | 0.0 | 0.0 | 0.00 | 0.00 | 0.00 | 83 | 1016.8 | |
| 20260906093017 | 69 | 0.0 | 0.0 | 0.00 | 0.00 | 0.00 | 84 | 1016.8 | |
| 20260906092517 | 69 | 0.0 | 0.0 | 0.00 | 0.00 | 0.00 | 84 | 1016.7 | |
| 20260906092017 | 69 | 0.0 | 0.0 | 0.00 | 0.00 | 0.00 | 84 | 1016.6 | |
| 20260906091517 | 69 | 0.0 | 0.0 | 0.00 | 0.00 | 0.00 | 84 | 1016.7 | |
| 20260906091037 | 69 | 0.0 | 0.0 | 0.00 | 0.00 | 0.00 | 84 | 1016.7 | |
| 20260906090517 | 69 | 0.0 | 0.0 | 0.00 | 0.00 | 0.00 | 84 | 1016.7 | |
| 20260906090017 | 69 | 0.0 | 0.0 | 0.00 | 0.00 | 0.00 | 83 | 1016.7 | |
| 20260906085517 | 69 | 0.0 | 0.0 | 0.00 | 0.00 | 0.00 | 83 | 1016.7 | |
| 20260906085017 | 69 | 0.0 | 0.0 | 0.00 | 0.00 | 0.00 | 83 | 1016.7 | |
| 20260906084517 | 70 | 0.0 | 0.0 | 0.00 | 0.00 | 0.00 | 83 | 1016.7 | |
| 20260906084018 | 70 | 0.0 | 0.0 | 0.00 | 0.00 | 0.00 | 83 | 1016.7 | |
| 20260906083517 | 70 | 0.0 | 0.0 | 0.00 | 0.00 | 0.00 | 83 | 1016.6 | |
| 20260906083018 | 70 | 0.0 | 1.0 | 0.00 | 0.00 | 0.00 | 84 | 1016.6 | |
| 20260906082517 | 70 | 0.0 | 1.0 | 0.00 | 0.00 | 0.00 | 83 | 1016.6 | |
| 20260906082017 | 70 | 0.0 | 0.0 | 0.00 | 0.00 | 0.00 | 83 | 1016.5 | |
| 20260906081517 | 70 | 0.0 | 0.0 | 0.00 | 0.00 | 0.00 | 82 | 1016.5 | |
| 20260906081017 | 70 | 0.0 | 0.0 | 0.00 | 0.00 | 0.00 | 82 | 1016.6 | |
| 20260906080517 | 70 | 0.0 | 0.0 | 0.00 | 0.00 | 0.00 | 82 | 1016.7 | |
| 20260906080017 | 70 | 0.0 | 0.0 | 0.00 | 0.00 | 0.00 | 82 | 1016.7 | |
| 20260906075517 | 70 | 0.0 | 0.0 | 0.00 | 0.00 | 0.00 | 81 | 1016.7 | |
| 20260906075016 | 70 | 0.0 | 0.0 | 0.00 | 0.00 | 0.00 | 81 | 1016.6 | |
| 20260906074537 | 70 | 0.0 | 0.0 | 0.00 | 0.00 | 0.00 | 81 | 1016.7 | |
| 20260906074017 | 70 | 0.0 | 0.0 | 0.00 | 0.00 | 0.00 | 81 | 1016.6 | |
| 20260906073517 | 70 | 0.0 | 0.0 | 0.00 | 0.00 | 0.00 | 81 | 1016.6 | |
| 20260906073016 | 70 | 0.0 | 0.0 | 0.00 | 0.00 | 0.00 | 81 | 1016.7 | |
| 20260906072537 | 70 | 0.0 | 0.0 | 0.00 | 0.00 | 0.00 | 81 | 1016.7 | |
| 20260906072017 | 70 | 0.0 | 0.0 | 0.00 | 0.00 | 0.00 | 81 | 1016.8 | |
| 20260906071516 | 71 | 0.0 | 0.0 | 0.00 | 0.00 | 0.00 | 81 | 1016.9 | |
| 20260906071017 | 71 | 0.0 | 0.0 | 0.00 | 0.00 | 0.00 | 81 | 1017.0 | |
| 20260906070517 | 71 | 0.0 | 0.0 | 0.00 | 0.00 | 0.00 | 81 | 1017.0 | |
| 20260906070016 | 71 | 0.0 | 0.0 | 0.00 | 0.00 | 0.00 | 81 | 1016.9 | |
| 20260906065537 | 70 | 0.0 | 0.0 | 0.00 | 0.00 | 0.00 | 81 | 1017.0 | |
| 20260906065017 | 71 | 0.0 | 0.0 | 0.00 | 0.00 | 0.00 | 81 | 1017.1 | |
| 20260906064516 | 70 | 0.0 | 0.0 | 0.00 | 0.00 | 0.00 | 81 | 1017.0 | |
| 20260906064037 | 70 | 0.0 | 0.0 | 0.00 | 0.00 | 0.00 | 80 | 1017.0 | |
| 20260906063517 | 70 | 0.0 | 0.0 | 0.00 | 0.00 | 0.00 | 80 | 1017.0 | |
| 20260906063116 | 71 | 0.0 | 0.0 | 0.00 | 0.00 | 0.00 | 80 | 1017.0 | |
| 20260906062517 | 71 | 0.0 | 0.0 | 0.00 | 0.00 | 0.00 | 79 | 1016.9 | |
| 20260906062016 | 71 | 0.0 | 0.0 | 0.00 | 0.00 | 0.00 | 79 | 1017.0 | |
| 20260906061517 | 71 | 0.0 | 0.0 | 0.00 | 0.00 | 0.00 | 79 | 1016.9 | |
| 20260906061016 | 71 | 0.0 | 0.0 | 0.00 | 0.00 | 0.00 | 79 | 1017.0 | |
| 20260906060536 | 71 | 0.0 | 0.0 | 0.00 | 0.00 | 0.00 | 79 | 1017.0 | |
| 20260906060017 | 71 | 0.0 | 0.0 | 0.00 | 0.00 | 0.00 | 79 | 1017.0 | |
| 20260906055516 | 71 | 0.0 | 0.0 | 0.00 | 0.00 | 0.00 | 78 | 1016.9 | |
| 20260906055016 | 71 | 0.0 | 0.0 | 0.00 | 0.00 | 0.00 | 78 | 1016.9 | |
| 20260906054516 | 71 | 0.0 | 0.0 | 0.00 | 0.00 | 0.00 | 78 | 1016.9 | |
| 20260906054016 | 71 | 0.0 | 0.0 | 0.00 | 0.00 | 0.00 | 78 | 1016.9 | |
| 20260906053516 | 72 | 0.0 | 0.0 | 0.00 | 0.00 | 0.00 | 78 | 1016.9 | |
| 20260906053016 | 72 | 0.0 | 0.0 | 0.00 | 0.00 | 0.00 | 78 | 1016.9 | |
| 20260906052517 | 72 | 0.0 | 0.0 | 0.00 | 0.00 | 0.00 | 78 | 1016.9 | |
| 20260906052016 | 72 | 0.0 | 0.0 | 0.00 | 0.00 | 0.00 | 78 | 1016.8 | |
| 20260906051516 | 72 | 0.0 | 0.0 | 0.00 | 0.00 | 0.00 | 77 | 1016.9 | |
| 20260906051016 | 72 | 0.0 | 0.0 | 0.00 | 0.00 | 0.00 | 77 | 1016.8 | |
| 20260906050516 | 72 | 0.0 | 0.0 | 0.00 | 0.00 | 0.00 | 77 | 1016.9 | |
| 20260906050036 | 72 | 0.0 | 0.0 | 0.00 | 0.00 | 0.00 | 77 | 1016.8 | |
| 20260906045516 | 72 | 0.0 | 0.0 | 0.00 | 0.00 | 0.00 | 77 | 1016.8 | |
| 20260906045016 | 73 | 0.0 | 0.0 | 0.00 | 0.00 | 0.00 | 77 | 1016.9 | |
| 20260906044516 | 73 | 0.0 | 0.0 | 0.00 | 0.00 | 0.00 | 76 | 1016.9 | |
| 20260906044017 | 73 | 0.0 | 0.0 | 0.00 | 0.00 | 0.00 | 76 | 1017.1 | |
| 20260906043516 | 73 | 0.0 | 0.0 | 0.00 | 0.00 | 0.00 | 76 | 1017.0 | |
| 20260906043016 | 73 | 0.0 | 0.0 | 0.00 | 0.00 | 0.00 | 76 | 1017.1 | |
| 20260906042516 | 73 | 0.0 | 0.0 | 0.00 | 0.00 | 0.00 | 76 | 1017.0 | |
| 20260906042036 | 73 | 0.0 | 0.0 | 0.00 | 0.00 | 0.00 | 76 | 1017.0 | |
| 20260906041516 | 73 | 0.0 | 0.0 | 0.00 | 0.00 | 0.00 | 75 | 1017.0 | |
| 20260906041016 | 73 | 0.0 | 0.0 | 0.00 | 0.00 | 0.00 | 75 | 1016.9 | |
| 20260906040517 | 73 | 0.0 | 0.0 | 0.00 | 0.00 | 0.00 | 75 | 1016.9 | |
| 20260906040016 | 73 | 0.0 | 0.0 | 0.00 | 0.00 | 0.00 | 74 | 1016.9 | |
| 20260906035537 | 74 | 0.0 | 0.0 | 0.00 | 0.00 | 0.00 | 74 | 1017.0 | |
| 20260906035016 | 74 | 0.0 | 0.0 | 0.00 | 0.00 | 0.00 | 74 | 1017.1 | |
| 20260906034516 | 74 | 0.0 | 0.0 | 0.00 | 0.00 | 0.00 | 73 | 1017.1 | |
| 20260906034016 | 74 | 0.0 | 0.0 | 0.00 | 0.00 | 0.00 | 73 | 1017.0 | |
| 20260906033536 | 74 | 0.0 | 0.0 | 0.00 | 0.00 | 0.00 | 72 | 1017.1 | |
| 20260906033016 | 74 | 0.0 | 0.0 | 0.00 | 0.00 | 0.00 | 72 | 1017.1 | |
| 20260906032516 | 74 | 0.0 | 0.0 | 0.00 | 0.00 | 0.00 | 71 | 1017.1 | |
| 20260906032016 | 75 | 0.0 | 0.0 | 0.00 | 0.00 | 0.00 | 71 | 1017.1 | |
| 20260906031516 | 75 | 0.0 | 0.0 | 0.00 | 0.00 | 0.00 | 71 | 1017.2 | |
| 20260906031016 | 75 | 0.0 | 0.0 | 0.00 | 0.00 | 0.00 | 71 | 1017.2 | |
| 20260906030516 | 75 | 0.0 | 0.0 | 0.00 | 0.00 | 0.00 | 71 | 1017.2 | |
| 20260906030016 | 75 | 0.0 | 0.0 | 0.00 | 0.00 | 0.00 | 71 | 1017.2 | |
| 20260906025536 | 76 | 0.0 | 0.0 | 0.00 | 0.00 | 0.00 | 71 | 1017.0 | |
| 20260906025016 | 76 | 0.0 | 0.0 | 0.00 | 0.00 | 0.00 | 70 | 1017.1 | |
| 20260906024515 | 76 | 0.0 | 0.0 | 0.00 | 0.00 | 0.00 | 69 | 1017.3 | |
| 20260906024016 | 76 | 0.0 | 0.0 | 0.00 | 0.00 | 0.00 | 69 | 1017.3 | |
| 20260906023516 | 76 | 0.0 | 0.0 | 0.00 | 0.00 | 0.00 | 68 | 1017.3 | |
| 20260906023016 | 76 | 0.0 | 0.0 | 0.00 | 0.00 | 0.00 | 68 | 1017.1 | |
| 20260906022536 | 76 | 0.0 | 0.0 | 0.00 | 0.00 | 0.00 | 68 | 1016.9 | |
| 20260906022016 | 76 | 0.0 | 0.0 | 0.00 | 0.00 | 0.00 | 68 | 1016.7 | |
| 20260906021535 | 77 | 0.0 | 0.0 | 0.00 | 0.00 | 0.00 | 67 | 1016.8 | |
| 20260906021016 | 77 | 0.0 | 0.0 | 0.00 | 0.00 | 0.00 | 67 | 1016.7 | |
| 20260906020535 | 77 | 0.0 | 0.0 | 0.00 | 0.00 | 0.00 | 67 | 1016.5 | |
| 20260906020016 | 77 | 0.0 | 0.0 | 0.00 | 0.00 | 0.00 | 66 | 1016.2 | |
| 20260906015515 | 77 | 0.0 | 2.0 | 0.00 | 0.00 | 0.00 | 66 | 1016.0 | |
| 20260906015016 | 78 | 0.0 | 2.0 | 0.00 | 0.00 | 0.00 | 65 | 1015.9 | |
| 20260906014515 | 78 | 0.0 | 0.0 | 0.00 | 0.00 | 0.00 | 65 | 1015.9 | |
| 20260906014016 | 78 | 0.0 | 1.0 | 0.00 | 0.00 | 0.00 | 64 | 1015.7 | |
| 20260906013515 | 78 | 0.0 | 2.0 | 0.00 | 0.00 | 0.00 | 64 | 1015.5 | |
| 20260906013015 | 78 | 0.0 | 2.0 | 0.00 | 0.00 | 0.00 | 64 | 1015.4 | |
| 20260906012515 | 79 | 90 | 1.0 | 1.0 | 0.00 | 0.00 | 0.00 | 63 | 1015.3 |
| 20260906012016 | 79 | 0.0 | 1.0 | 0.00 | 0.00 | 0.00 | 63 | 1015.2 | |
| 20260906011515 | 79 | 0.0 | 1.0 | 0.00 | 0.00 | 0.00 | 63 | 1015.1 | |
| 20260906011015 | 79 | 0.0 | 2.0 | 0.00 | 0.00 | 0.00 | 63 | 1015.1 | |
| 20260906010516 | 79 | 0.0 | 2.0 | 0.00 | 0.00 | 0.00 | 63 | 1015.1 | |
| 20260906010015 | 80 | 0.0 | 2.0 | 0.00 | 0.00 | 0.00 | 63 | 1015.0 | |
| 20260906005515 | 80 | 0.0 | 2.0 | 0.00 | 0.00 | 0.00 | 62 | 1014.8 | |
| 20260906005057 | 80 | 0.0 | 1.0 | 0.00 | 0.00 | 0.00 | 62 | 1014.7 | |
| 20260906004518 | 80 | 0.0 | 2.0 | 0.00 | 0.00 | 0.00 | 61 | 1014.7 | |
| 20260906004017 | 81 | 0.0 | 2.0 | 0.00 | 0.00 | 0.00 | 61 | 1014.6 | |
| 20260906003517 | 81 | 0.0 | 1.0 | 0.00 | 0.00 | 0.00 | 60 | 1014.6 | |
| 20260906003017 | 81 | 0.0 | 2.0 | 0.00 | 0.00 | 0.00 | 60 | 1014.5 | |
| 20260906002517 | 81 | 0.0 | 2.0 | 0.00 | 0.00 | 0.00 | 59 | 1014.4 | |
| 20260906002017 | 81 | 90 | 1.0 | 1.0 | 0.00 | 0.00 | 0.00 | 59 | 1014.2 |
| 20260906001517 | 82 | 0.0 | 2.0 | 0.00 | 0.00 | 0.00 | 60 | 1014.4 | |
| 20260906001017 | 82 | 0.0 | 2.0 | 0.00 | 0.00 | 0.00 | 59 | 1014.5 | |
| 20260906000517 | 82 | 0.0 | 1.0 | 0.00 | 0.00 | 0.00 | 59 | 1014.4 | |
| 20260906000017 | 82 | 90 | 1.0 | 2.0 | 0.00 | 0.00 | 0.00 | 58 | 1014.2 |
| 20260905235517 | 82 | 90 | 1.0 | 2.0 | 0.00 | 0.00 | 0.00 | 58 | 1014.3 |
| 20260905235017 | 83 | 90 | 1.0 | 2.0 | 0.00 | 0.00 | 0.00 | 57 | 1014.5 |
| 20260905234517 | 83 | 68 | 1.0 | 2.0 | 0.00 | 0.00 | 0.00 | 57 | 1014.7 |
| 20260905234017 | 83 | 90 | 1.0 | 2.0 | 0.00 | 0.00 | 0.00 | 56 | 1014.6 |
| 20260905233517 | 83 | 0.0 | 2.0 | 0.00 | 0.00 | 0.00 | 56 | 1014.7 | |
| 20260905233017 | 83 | 90 | 1.0 | 2.0 | 0.00 | 0.00 | 0.00 | 56 | 1014.7 |
| 20260905232517 | 83 | 90 | 1.0 | 2.0 | 0.00 | 0.00 | 0.00 | 55 | 1014.5 |
| 20260905232017 | 84 | 90 | 1.0 | 2.0 | 0.00 | 0.00 | 0.00 | 55 | 1014.5 |
| 20260905231518 | 84 | 90 | 1.0 | 2.0 | 0.00 | 0.00 | 0.00 | 54 | 1014.4 |
| 20260905231017 | 84 | 90 | 1.0 | 3.0 | 0.00 | 0.00 | 0.00 | 54 | 1014.4 |
| 20260905230638 | 85 | 90 | 1.0 | 3.0 | 0.00 | 0.00 | 0.00 | 54 | 1014.5 |
| 20260905230017 | 85 | 0.0 | 2.0 | 0.00 | 0.00 | 0.00 | 55 | 1014.5 | |
| 20260905225517 | 85 | 68 | 1.0 | 2.0 | 0.00 | 0.00 | 0.00 | 55 | 1014.3 |
| 20260905225017 | 85 | 68 | 1.0 | 2.0 | 0.00 | 0.00 | 0.00 | 55 | 1014.3 |
| 20260905224517 | 85 | 90 | 1.0 | 2.0 | 0.00 | 0.00 | 0.00 | 57 | 1014.2 |
| 20260905224037 | 85 | 90 | 2.0 | 5.0 | 0.00 | 0.00 | 0.00 | 56 | 1014.1 |
| 20260905223517 | 85 | 90 | 2.0 | 3.0 | 0.00 | 0.00 | 0.00 | 55 | 1014.2 |
| 20260905223017 | 85 | 90 | 2.0 | 5.0 | 0.00 | 0.00 | 0.00 | 55 | 1014.3 |
| 20260905222517 | 85 | 90 | 2.0 | 5.0 | 0.00 | 0.00 | 0.00 | 54 | 1014.3 |
| 20260905222017 | 85 | 68 | 1.0 | 3.0 | 0.00 | 0.00 | 0.00 | 55 | 1014.4 |
| 20260905221538 | 85 | 90 | 2.0 | 3.0 | 0.00 | 0.00 | 0.00 | 55 | 1014.3 |
| 20260905221017 | 85 | 68 | 2.0 | 3.0 | 0.00 | 0.00 | 0.00 | 55 | 1014.4 |
| 20260905220517 | 85 | 68 | 2.0 | 4.0 | 0.00 | 0.00 | 0.00 | 56 | 1014.5 |
| 20260905220017 | 85 | 90 | 1.0 | 2.0 | 0.00 | 0.00 | 0.00 | 56 | 1014.7 |
| 20260905215517 | 85 | 90 | 1.0 | 2.0 | 0.00 | 0.00 | 0.00 | 56 | 1014.8 |
| 20260905215017 | 85 | 0.0 | 1.0 | 0.00 | 0.00 | 0.00 | 57 | 1014.5 | |
| 20260905214517 | 85 | 68 | 2.0 | 6.0 | 0.00 | 0.00 | 0.00 | 57 | 1014.3 |
| 20260905214037 | 84 | 68 | 2.0 | 7.0 | 0.00 | 0.00 | 0.00 | 58 | 1014.3 |
| 20260905213517 | 84 | 68 | 2.0 | 7.0 | 0.00 | 0.00 | 0.00 | 57 | 1014.3 |
| 20260905213037 | 84 | 45 | 2.0 | 5.0 | 0.00 | 0.00 | 0.00 | 57 | 1014.4 |
| 20260905212516 | 84 | 68 | 2.0 | 5.0 | 0.00 | 0.00 | 0.00 | 58 | 1014.5 |
| 20260905212017 | 84 | 68 | 2.0 | 5.0 | 0.00 | 0.00 | 0.00 | 58 | 1014.6 |
| 20260905211517 | 83 | 68 | 2.0 | 3.0 | 0.00 | 0.00 | 0.00 | 58 | 1014.7 |
| 20260905211037 | 83 | 68 | 2.0 | 4.0 | 0.00 | 0.00 | 0.00 | 58 | 1014.9 |
| 20260905210516 | 83 | 68 | 2.0 | 3.0 | 0.00 | 0.00 | 0.00 | 58 | 1015.0 |
| 20260905210017 | 83 | 113 | 1.0 | 2.0 | 0.00 | 0.00 | 0.00 | 59 | 1015.1 |
| 20260905205517 | 83 | 90 | 1.0 | 2.0 | 0.00 | 0.00 | 0.00 | 59 | 1015.2 |
| 20260905205016 | 82 | 68 | 2.0 | 3.0 | 0.00 | 0.00 | 0.00 | 59 | 1015.3 |
| 20260905204517 | 82 | 90 | 2.0 | 4.0 | 0.00 | 0.00 | 0.00 | 59 | 1015.4 |
| 20260905204057 | 82 | 68 | 2.0 | 4.0 | 0.00 | 0.00 | 0.00 | 60 | 1015.4 |
| 20260905203516 | 82 | 68 | 1.0 | 2.0 | 0.00 | 0.00 | 0.00 | 59 | 1015.5 |
| 20260905203017 | 82 | 90 | 2.0 | 3.0 | 0.00 | 0.00 | 0.00 | 59 | 1015.7 |
| 20260905202516 | 82 | 90 | 1.0 | 3.0 | 0.00 | 0.00 | 0.00 | 62 | 1015.8 |
| 20260905202017 | 81 | 68 | 1.0 | 3.0 | 0.00 | 0.00 | 0.00 | 63 | 1015.8 |
| 20260905201516 | 81 | 45 | 1.0 | 3.0 | 0.00 | 0.00 | 0.00 | 63 | 1015.9 |
| 20260905201016 | 81 | 90 | 1.0 | 5.0 | 0.00 | 0.00 | 0.00 | 63 | 1016.0 |
| 20260905200558 | 81 | 68 | 1.0 | 4.0 | 0.00 | 0.00 | 0.00 | 64 | 1016.0 |
| 20260905200017 | 80 | 68 | 1.0 | 2.0 | 0.00 | 0.00 | 0.00 | 65 | 1016.2 |
| 20260905195537 | 80 | 68 | 1.0 | 2.0 | 0.00 | 0.00 | 0.00 | 63 | 1016.3 |
| 20260905195017 | 80 | 45 | 1.0 | 2.0 | 0.00 | 0.00 | 0.00 | 64 | 1016.3 |
| 20260905194517 | 80 | 90 | 1.0 | 2.0 | 0.00 | 0.00 | 0.00 | 65 | 1016.4 |
| 20260905194016 | 80 | 0.0 | 2.0 | 0.00 | 0.00 | 0.00 | 65 | 1016.5 | |
| 20260905193516 | 79 | 0.0 | 2.0 | 0.00 | 0.00 | 0.00 | 67 | 1016.6 | |
| 20260905193017 | 79 | 0.0 | 2.0 | 0.00 | 0.00 | 0.00 | 67 | 1016.6 | |
| 20260905192538 | 79 | 0.0 | 1.0 | 0.00 | 0.00 | 0.00 | 68 | 1016.6 | |
| 20260905192016 | 79 | 0.0 | 1.0 | 0.00 | 0.00 | 0.00 | 68 | 1016.6 | |
| 20260905191536 | 79 | 0.0 | 2.0 | 0.00 | 0.00 | 0.00 | 68 | 1016.5 | |
| 20260905191016 | 79 | 45 | 1.0 | 2.0 | 0.00 | 0.00 | 0.00 | 68 | 1016.6 |
| 20260905190517 | 79 | 0.0 | 2.0 | 0.00 | 0.00 | 0.00 | 69 | 1016.5 | |
| 20260905190037 | 78 | 90 | 1.0 | 2.0 | 0.00 | 0.00 | 0.00 | 69 | 1016.5 |
| 20260905185516 | 78 | 0.0 | 2.0 | 0.00 | 0.00 | 0.00 | 69 | 1016.6 | |
| 20260905185016 | 78 | 45 | 1.0 | 2.0 | 0.00 | 0.00 | 0.00 | 69 | 1016.7 |
| 20260905184516 | 78 | 68 | 1.0 | 2.0 | 0.00 | 0.00 | 0.00 | 69 | 1016.7 |
| 20260905184017 | 78 | 0.0 | 2.0 | 0.00 | 0.00 | 0.00 | 70 | 1016.8 | |
| 20260905183516 | 78 | 0.0 | 1.0 | 0.00 | 0.00 | 0.00 | 70 | 1016.6 |